Tiempo cada hora Dabas

Hoy, 2 Agosto, Lunes

Tiempo Temperatura Precipitaciones Viento Presión Humedad
00:00 +17°C° 0 mm 5 mps 747 mmHg 81%
01:00 +17°C° 0 mm 5 mps 747 mmHg 80%
02:00 +16°C° 0 mm 5 mps 747 mmHg 79%
03:00 +16°C° 0 mm 5 mps 748 mmHg 78%
04:00 +16°C° 0 mm 5 mps 748 mmHg 77%
05:00 +17°C° 0 mm 5 mps 748 mmHg 70%
06:00 +19°C° 0 mm 6 mps 749 mmHg 63%
07:00 +21°C° 0 mm 7 mps 749 mmHg 56%
08:00 +22°C° 0 mm 6 mps 750 mmHg 50%
09:00 +24°C° 0 mm 6 mps 750 mmHg 43%
10:00 +27°C° 0 mm 6 mps 750 mmHg 36%
11:00 +28°C° 0 mm 6 mps 750 mmHg 34%
12:00 +29°C° 0 mm 5 mps 750 mmHg 32%
13:00 +30°C° 0 mm 5 mps 750 mmHg 29%
14:00 +30°C° 0 mm 5 mps 750 mmHg 29%
15:00 +30°C° 0 mm 5 mps 749 mmHg 28%
16:00 +30°C° 0 mm 5 mps 749 mmHg 27%
17:00 +29°C° 0 mm 4 mps 749 mmHg 31%
18:00 +27°C° 0 mm 3 mps 749 mmHg 34%
19:00 +25°C° 0 mm 3 mps 750 mmHg 38%
20:00 +24°C° 0 mm 3 mps 750 mmHg 42%
21:00 +22°C° 0 mm 3 mps 750 mmHg 47%
22:00 +21°C° 0 mm 2 mps 751 mmHg 51%
23:00 +20°C° 0 mm 2 mps 751 mmHg 52%

Mañana, 3 Agosto, Martes

Tiempo Temperatura Precipitaciones Viento Presión Humedad
00:00 +20°C° 0 mm 2 mps 751 mmHg 54%
01:00 +21°C° 0 mm 1 mps 751 mmHg 55%
02:00 +20°C° 0 mm 1 mps 751 mmHg 57%
03:00 +20°C° 0 mm 1 mps 751 mmHg 59%
04:00 +19°C° 0 mm 1 mps 752 mmHg 61%
05:00 +21°C° 0 mm 1 mps 752 mmHg 56%
06:00 +22°C° 0 mm 1 mps 752 mmHg 51%
07:00 +24°C° 0 mm 1 mps 752 mmHg 46%
08:00 +26°C° 0 mm 1 mps 752 mmHg 41%
09:00 +28°C° 0 mm 1 mps 752 mmHg 35%
10:00 +30°C° 0 mm 1 mps 752 mmHg 29%
11:00 +30°C° 0 mm 1 mps 751 mmHg 29%
12:00 +31°C° 0 mm 2 mps 751 mmHg 28%
13:00 +31°C° 0 mm 2 mps 750 mmHg 27%
14:00 +31°C° 0 mm 2 mps 750 mmHg 27%
15:00 +31°C° 0 mm 2 mps 750 mmHg 27%
16:00 +31°C° 0 mm 2 mps 749 mmHg 27%
17:00 +30°C° 0 mm 2 mps 749 mmHg 31%
18:00 +28°C° 0 mm 2 mps 749 mmHg 35%
19:00 +26°C° 0 mm 3 mps 749 mmHg 39%
20:00 +25°C° 0 mm 3 mps 749 mmHg 44%
21:00 +24°C° 0 mm 3 mps 749 mmHg 49%
22:00 +22°C° 0 mm 3 mps 750 mmHg 54%
23:00 +21°C° 0 mm 3 mps 750 mmHg 58%

Pasado mañana, 4 Agosto, Miércoles

Tiempo Temperatura Precipitaciones Viento Presión Humedad
00:00 +20°C° 0 mm 3 mps 750 mmHg 61%
01:00 +20°C° 0 mm 3 mps 750 mmHg 65%
02:00 +20°C° 0 mm 3 mps 750 mmHg 65%
03:00 +19°C° 0 mm 2 mps 750 mmHg 66%
04:00 +19°C° 0 mm 2 mps 749 mmHg 66%
05:00 +20°C° 0 mm 2 mps 750 mmHg 61%
06:00 +23°C° 0 mm 2 mps 750 mmHg 56%
07:00 +24°C° 0 mm 2 mps 750 mmHg 51%
08:00 +26°C° 0 mm 2 mps 750 mmHg 46%
09:00 +27°C° 0 mm 1 mps 751 mmHg 41%
10:00 +29°C° 0 mm 1 mps 751 mmHg 35%
11:00 +30°C° 0 mm 2 mps 750 mmHg 33%
12:00 +31°C° 0 mm 3 mps 750 mmHg 31%
13:00 +33°C° 0 mm 3 mps 750 mmHg 29%
14:00 +33°C° 0 mm 3 mps 749 mmHg 27%
15:00 +34°C° 0 mm 3 mps 749 mmHg 26%
16:00 +34°C° 0 mm 3 mps 749 mmHg 25%
17:00 +33°C° 0 mm 3 mps 749 mmHg 29%
18:00 +30°C° 0 mm 3 mps 748 mmHg 33%
19:00 +28°C° 0 mm 3 mps 748 mmHg 37%
20:00 +27°C° 0 mm 3 mps 748 mmHg 41%
21:00 +26°C° 0 mm 2 mps 748 mmHg 44%
22:00 +25°C° 0 mm 2 mps 748 mmHg 48%
23:00 +24°C° 0 mm 3 mps 748 mmHg 49%

5 Agosto, Jueves

Tiempo Temperatura Precipitaciones Viento Presión Humedad
00:00 +24°C° 0 mm 3 mps 748 mmHg 50%
01:00 +22°C° 0 mm 3 mps 748 mmHg 51%
02:00 +22°C° 0 mm 3 mps 747 mmHg 53%
03:00 +21°C° 0 mm 3 mps 747 mmHg 54%
04:00 +21°C° 0 mm 3 mps 747 mmHg 56%
05:00 +22°C° 0 mm 3 mps 746 mmHg 50%
06:00 +25°C° 0 mm 3 mps 746 mmHg 45%
07:00 +26°C° 0 mm 4 mps 746 mmHg 39%
08:00 +27°C° 0.2 mm 3 mps 746 mmHg 40%
09:00 +27°C° 0.2 mm 2 mps 746 mmHg 41%
10:00 +28°C° 0.2 mm 2 mps 746 mmHg 42%
11:00 +27°C° 0.2 mm 3 mps 746 mmHg 49%
12:00 +26°C° 0.2 mm 3 mps 746 mmHg 56%
13:00 +23°C° 0.2 mm 4 mps 746 mmHg 63%
14:00 +23°C° 0.8 mm 4 mps 746 mmHg 67%
15:00 +23°C° 0.8 mm 4 mps 745 mmHg 71%
16:00 +23°C° 0.8 mm 4 mps 745 mmHg 75%
17:00 +21°C° 1.9 mm 4 mps 745 mmHg 79%
18:00 +20°C° 1.9 mm 5 mps 745 mmHg 83%
19:00 +17°C° 1.9 mm 5 mps 745 mmHg 87%
20:00 +17°C° 0 mm 5 mps 745 mmHg 86%
21:00 +17°C° 0 mm 4 mps 745 mmHg 86%
22:00 +17°C° 0 mm 4 mps 746 mmHg 85%
23:00 +15°C° 0 mm 4 mps 746 mmHg 86%

6 Agosto, Viernes

Tiempo Temperatura Precipitaciones Viento Presión Humedad
00:00 +16°C° 0 mm 3 mps 746 mmHg 87%
01:00 +14°C° 0 mm 3 mps 746 mmHg 88%
02:00 +16°C° 0 mm 3 mps 746 mmHg 88%
03:00 +16°C° 0 mm 3 mps 746 mmHg 87%
04:00 +15°C° 0 mm 4 mps 747 mmHg 87%
05:00 +17°C° 0 mm 4 mps 747 mmHg 82%
06:00 +17°C° 0 mm 5 mps 747 mmHg 77%
07:00 +19°C° 0 mm 5 mps 747 mmHg 72%
08:00 +21°C° 0 mm 5 mps 747 mmHg 64%
09:00 +23°C° 0 mm 5 mps 747 mmHg 55%
10:00 +26°C° 0 mm 5 mps 747 mmHg 46%
11:00 +27°C° 0 mm 5 mps 747 mmHg 42%
12:00 +28°C° 0 mm 5 mps 747 mmHg 38%
13:00 +29°C° 0 mm 5 mps 747 mmHg 33%
14:00 +30°C° 0 mm 5 mps 747 mmHg 31%
15:00 +30°C° 0 mm 5 mps 747 mmHg 28%
16:00 +32°C° 0 mm 5 mps 746 mmHg 26%
17:00 +29°C° 0 mm 4 mps 747 mmHg 30%
18:00 +27°C° 0 mm 3 mps 747 mmHg 35%
19:00 +26°C° 0 mm 3 mps 747 mmHg 39%
20:00 +25°C° 0 mm 2 mps 747 mmHg 42%
21:00 +23°C° 0 mm 2 mps 747 mmHg 45%
22:00 +21°C° 0 mm 2 mps 748 mmHg 49%
23:00 +21°C° 0 mm 2 mps 748 mmHg 50%

7 Agosto, Sábado

Tiempo Temperatura Precipitaciones Viento Presión Humedad
00:00 +21°C° 0 mm 1 mps 748 mmHg 52%
01:00 +21°C° 0 mm 1 mps 748 mmHg 53%
02:00 +20°C° 0 mm 1 mps 749 mmHg 55%
03:00 +20°C° 0 mm 1 mps 749 mmHg 56%
04:00 +20°C° 0 mm 1 mps 749 mmHg 57%
05:00 +21°C° 0 mm 1 mps 749 mmHg 53%
06:00 +23°C° 0 mm 1 mps 749 mmHg 49%
07:00 +24°C° 0 mm 1 mps 750 mmHg 45%
08:00 +26°C° 0 mm 1 mps 750 mmHg 41%
09:00 +28°C° 0 mm 1 mps 750 mmHg 36%
10:00 +30°C° 0 mm 2 mps 750 mmHg 31%
11:00 +31°C° 0 mm 2 mps 750 mmHg 29%
12:00 +34°C° 0 mm 2 mps 749 mmHg 27%
13:00 +35°C° 0 mm 2 mps 749 mmHg 25%
14:00 +35°C° 0 mm 2 mps 749 mmHg 24%
15:00 +35°C° 0 mm 2 mps 748 mmHg 22%
16:00 +36°C° 0 mm 2 mps 748 mmHg 21%
17:00 +34°C° 0 mm 3 mps 748 mmHg 25%
18:00 +31°C° 0 mm 3 mps 748 mmHg 28%
19:00 +29°C° 0 mm 3 mps 748 mmHg 31%
20:00 +28°C° 0 mm 3 mps 748 mmHg 32%
21:00 +27°C° 0 mm 3 mps 748 mmHg 33%
22:00 +26°C° 0 mm 3 mps 748 mmHg 34%
23:00 +25°C° 0 mm 3 mps 748 mmHg 36%
Mostrar más

Necesitamos Su Consentimiento

Meteoprog y nuestros Proveedores de Servicios pueden almacenar y acceder a sus datos personales como cookies, identificadores de dispositivo u otras tecnologías similares de su dispositivo y procesar dichos datos para personalizar contenido y anuncios, además de ofrecer funciones de redes sociales y analizar el tráfico.

  • Almacenar y/o acceder a información en su dispositivo

    Se puede almacenar o acceder a cookies, identificadores de dispositivo u otra información de su dispositivo para los fines anteriormente indicados.

  • Anuncios y contenido personalizados, medición de anuncios y contenido, percepciones del público, y desarrollo de productos

    Los anuncios y el contenido pueden personalizarse en base a su perfil. Se pueden añadir más datos para personalizar mejor los anuncios y contenidos. Se puede medir el rendimiento de los anuncios y contenidos. Se puede obtener la percepción sobre el público que ha visto los anuncios y contenidos. Dichos datos pueden usarse para desarrollar o mejorar la experiencia del usuario, sistemas y software.

Al hacer clic en ‘Estoy De Acuerdo’ usted permitirá el uso de las cookies, identificadores de dispositivo, balizas web u otras tecnologías similares indicadas. Su configuración puede cambiarse desde el navegador de su dispositivo.

Para ciertos fines, los intereses legítimos pueden ser considerados por encima del consentimiento. Puede leer más sobre ello en nuestra Política de Privacidad y Cookies.